Tracking 17559 objects as of 13-February-2016
HD Live streaming from Space Station
objects crossing your sky now

ASTRA 1D

Track ASTRA 1D now!
ASTRA 1D is classified as:


NORAD ID: 23331
Int'l Code: 1994-070A
Perigee: 35,777.8 km
Apogee: 35,809.0 km
Inclination: 6.8 °
Period: 1,436.1 minutes
Semi major axis: 42164 km
RCS: 75.2376 m2 (large)
Launch date: November 1, 1994
Source: Luxembourg (LUXE)
Launch site: FRENCH GUIANA (FRGUI)

Primarily backup for Astra 1B and 1C; 18 Ku-band transponders; continental Europe.
Your satellite tracking list
Your tracking list is empty





NASA's NSSDC Master Catalog

Two Line Element Set (TLE):
1 23331U 94070A   16043.93488784 -.00000301 +00000-0 +00000-0 0  9992
2 23331 006.7903 053.0757 0003699 262.5926 115.9864 01.0027292807841
Source of the keplerian elements: AFSPC

N2YO: 518